Flag for Sierra Leone Weather past 2 weeks in Kenema, Sierra Leone

Now
79 °F

Passing clouds.


Feels Like: 83 °F
Forecast: N/A
Wind: No wind

Location: Roberts Field


UV Index: N/A

Visibility: N/A


Pressure: 29.86 "Hg

Humidity: 94%

Dew point: 77 °F

Location of KenemaLocation

Historic Weather in Kenema

°F

Kenema temperature yesterday

Maximum temperature yesterday: 84 °F (at 10:00 AM)
Minimum temperature yesterday: 75 °F (at 6:00 AM)
Average temperature yesterday: 79 °F

Past Weeks' High & Low Weather Summary

 TemperatureHumidityPressure
High91 °F (Apr 6, 2:00 PM)100% (Apr 7, 4:30 AM)29.98 "Hg (Apr 7, 4:30 AM)
Low70 °F (Apr 14, 5:00 AM)46% (Apr 13, 12:00 PM)29.74 "Hg (Apr 16, 5:00 PM)
Average81 °F82%29.86 "Hg
* Reported Apr 5 10:00 PM — Apr 20 10:00 PM, Kenema, Weather by CustomWeather, © 2014

Note: Actual official high and low records may vary slightly from our data, if they occured in-between our weather recording intervals... More about our weather records

Advertising

Historic Weather Conditions — Data for Previous 24 hours

 ConditionsComfort  
Time TempWeatherWind HumidityBarometerVisibility
10:00 PM
Apr 20
79 °FPassing clouds.No wind94%29.86 "HgN/A
9:00 PM79 °FPassing clouds.No wind89%29.83 "HgN/A
8:30 PM81 °FPassing clouds.No wind89%29.83 "HgN/A
8:00 PM81 °FPassing clouds.No wind89%29.80 "HgN/A
7:30 PM81 °FScattered clouds.No wind89%29.80 "HgN/A
7:00 PM82 °FPartly sunny.3 mph84%29.80 "HgN/A
6:30 PM82 °FPartly sunny.6 mph84%29.80 "HgN/A
6:00 PM84 °FScattered clouds.6 mph79%29.80 "HgN/A
5:30 PM84 °FScattered clouds.7 mph79%29.80 "HgN/A
5:00 PM84 °FScattered clouds.9 mph79%29.80 "HgN/A
4:30 PM88 °FScattered clouds.12 mph75%29.80 "HgN/A
4:00 PM88 °FPartly sunny.10 mph70%29.80 "HgN/A
3:30 PM90 °FScattered clouds.12 mph67%29.80 "HgN/A
3:00 PM88 °FScattered clouds.8 mph70%29.83 "HgN/A
2:30 PM90 °FPartly sunny.9 mph67%29.83 "HgN/A
2:00 PM90 °FPartly sunny.10 mph67%29.83 "HgN/A
1:30 PM88 °FPartly sunny.14 mph70%29.86 "HgN/A
1:00 PM90 °FPartly sunny.12 mph67%29.86 "HgN/A
12:30 PM88 °FPartly sunny.7 mph70%29.86 "HgN/A
12:00 PM88 °FPartly sunny.6 mph70%29.89 "HgN/A
11:30 AM86 °FPartly sunny.3 mph75%29.89 "HgN/A
11:00 AM86 °FPartly sunny.3 mph75%29.89 "HgN/A
10:30 AM86 °FPartly sunny.No wind75%29.89 "HgN/A
10:00 AM84 °FPartly sunny.No wind79%29.92 "HgN/A
9:30 AM82 °FPartly sunny.No wind79%29.92 "HgN/A
9:00 AM81 °FPartly sunny.No wind84%29.92 "HgN/A
8:30 AM79 °FPartly sunny.No wind94%29.92 "HgN/A
8:00 AM77 °FScattered clouds.No wind94%29.89 "HgN/A
7:30 AM77 °FPassing clouds.No wind94%29.89 "HgN/A
7:00 AM75 °FPassing clouds.No wind94%29.89 "HgN/A
6:30 AM75 °FPassing clouds.No wind94%29.86 "HgN/A
6:00 AM75 °FPassing clouds.No wind94%29.86 "HgN/A
5:30 AM75 °FPassing clouds.No wind94%29.86 "HgN/A
5:00 AM75 °FPassing clouds.No wind94%29.86 "HgN/A
4:30 AM75 °FPassing clouds.No wind94%29.86 "HgN/A
3:30 AM75 °FPassing clouds.No wind94%29.86 "HgN/A
2:30 AM75 °FPassing clouds.No wind94%29.86 "HgN/A
1:00 AM77 °FPassing clouds.No wind89%29.89 "HgN/A
12:30 AM77 °FPassing clouds.No wind89%29.89 "HgN/A
12:00 AM77 °FPassing clouds.No wind89%29.89 "HgN/A
11:30 PM
Apr 19
77 °FPassing clouds.No wind89%29.89 "HgN/A
11:00 PM77 °FPassing clouds.No wind89%29.92 "HgN/A
Weather by CustomWeather, © 2014

See weather overview